Total_Precipitation_Accumulation
0.22 0.15 0.14 0.20 0.22 0.18 0.09 0.07 0.06 0.03 0.03 0.03 0.03 0.03 0.04 0.06 0.07 0.15 0.14 0.11 0.11 0.17 0.28 0.53 0.85 0.98 1.00 1.04 1.03 1.04 0.95 0.92 0.95 1.06 1.13 1.12 1.08 1.00 1.06 1.09 1.13 1.19 1.22 1.19 1.13 1.05 0.95 0.79 0.70
0.19 0.20 0.24 0.33 0.25 0.16 0.09 0.07 0.09 0.06 0.05 0.04 0.04 0.04 0.04 0.05 0.06 0.09 0.15 0.15 0.12 0.18 0.31 0.50 0.81 0.98 1.05 1.05 1.03 1.01 0.98 1.02 1.02 1.06 1.14 1.15 1.09 1.01 1.05 1.11 1.13 1.19 1.21 1.24 1.18 1.07 0.98 0.81 0.70
0.24 0.29 0.34 0.36 0.25 0.16 0.13 0.09 0.12 0.10 0.08 0.05 0.05 0.06 0.06 0.07 0.07 0.09 0.13 0.14 0.16 0.23 0.35 0.56 0.86 1.03 1.10 1.09 1.04 1.01 1.01 1.06 1.09 1.11 1.18 1.19 1.17 1.06 1.00 1.00 1.03 1.08 1.13 1.17 1.20 1.06 0.95 0.84 0.72
0.36 0.45 0.45 0.36 0.22 0.15 0.11 0.10 0.13 0.13 0.11 0.07 0.06 0.07 0.05 0.07 0.08 0.10 0.14 0.17 0.21 0.27 0.36 0.58 0.88 1.07 1.11 1.11 1.12 1.04 1.05 1.11 1.14 1.17 1.26 1.27 1.24 1.15 1.07 1.00 0.98 0.94 0.98 1.04 1.09 1.02 0.97 0.86 0.73
0.46 0.55 0.50 0.34 0.18 0.11 0.08 0.08 0.11 0.12 0.11 0.09 0.07 0.06 0.09 0.10 0.11 0.14 0.19 0.23 0.27 0.36 0.46 0.65 0.93 1.14 1.20 1.20 1.21 1.17 1.15 1.19 1.23 1.23 1.29 1.36 1.31 1.27 1.16 1.05 0.97 0.88 0.85 0.88 0.93 0.91 0.92 0.89 0.79
0.63 0.58 0.42 0.29 0.18 0.08 0.06 0.08 0.10 0.11 0.12 0.11 0.09 0.07 0.12 0.15 0.17 0.21 0.25 0.32 0.36 0.45 0.60 0.78 1.12 1.29 1.40 1.43 1.37 1.34 1.36 1.41 1.39 1.38 1.40 1.45 1.40 1.31 1.23 1.10 1.02 0.95 0.91 0.90 0.88 0.86 0.87 0.89 0.86
0.62 0.51 0.31 0.23 0.18 0.10 0.07 0.09 0.10 0.11 0.14 0.13 0.12 0.11 0.15 0.21 0.24 0.26 0.31 0.38 0.45 0.56 0.72 0.86 1.07 1.31 1.57 1.73 1.70 1.60 1.57 1.58 1.55 1.52 1.54 1.54 1.52 1.48 1.39 1.28 1.15 1.09 1.04 0.98 0.87 0.77 0.75 0.76 0.80
0.62 0.59 0.33 0.22 0.20 0.13 0.10 0.10 0.11 0.14 0.16 0.16 0.15 0.12 0.15 0.24 0.26 0.32 0.39 0.47 0.56 0.68 0.82 0.96 1.13 1.31 1.53 1.73 1.87 1.78 1.66 1.62 1.69 1.68 1.63 1.64 1.60 1.59 1.56 1.40 1.24 1.15 1.11 1.01 0.91 0.82 0.74 0.67 0.64
0.73 0.74 0.40 0.22 0.19 0.16 0.14 0.15 0.14 0.16 0.19 0.22 0.19 0.15 0.16 0.24 0.33 0.43 0.52 0.63 0.72 0.83 0.94 1.05 1.24 1.38 1.58 1.77 1.82 1.85 1.79 1.74 1.74 1.68 1.63 1.64 1.59 1.54 1.49 1.35 1.29 1.25 1.19 1.10 1.01 0.93 0.79 0.66 0.54
0.86 0.69 0.36 0.19 0.18 0.17 0.19 0.20 0.20 0.22 0.25 0.29 0.26 0.21 0.23 0.32 0.43 0.47 0.51 0.57 0.71 0.87 0.99 1.08 1.27 1.38 1.57 1.61 1.76 1.91 1.82 1.76 1.71 1.57 1.56 1.51 1.52 1.53 1.42 1.40 1.36 1.31 1.27 1.22 1.18 1.08 0.92 0.72 0.53
0.72 0.52 0.28 0.20 0.18 0.18 0.23 0.22 0.20 0.26 0.26 0.29 0.28 0.24 0.29 0.40 0.52 0.54 0.55 0.56 0.64 0.83 1.03 1.12 1.29 1.43 1.54 1.60 1.63 1.77 1.79 1.74 1.69 1.61 1.57 1.57 1.60 1.63 1.55 1.47 1.46 1.35 1.26 1.25 1.23 1.17 0.95 0.79 0.66
0.54 0.36 0.26 0.23 0.21 0.23 0.25 0.21 0.19 0.24 0.24 0.25 0.29 0.27 0.31 0.43 0.50 0.57 0.64 0.66 0.73 0.89 1.07 1.20 1.40 1.54 1.59 1.66 1.70 1.72 1.80 1.78 1.70 1.67 1.64 1.63 1.61 1.60 1.55 1.42 1.34 1.29 1.27 1.27 1.24 1.15 1.01 0.87 0.72
0.44 0.32 0.27 0.26 0.26 0.26 0.27 0.23 0.20 0.22 0.22 0.27 0.36 0.33 0.32 0.42 0.51 0.63 0.77 0.82 0.86 0.95 1.11 1.30 1.51 1.62 1.68 1.74 1.80 1.79 1.77 1.73 1.69 1.63 1.64 1.59 1.54 1.52 1.49 1.41 1.34 1.30 1.24 1.17 1.12 1.06 0.98 0.88 0.78
0.38 0.33 0.30 0.31 0.35 0.30 0.31 0.26 0.21 0.20 0.21 0.31 0.40 0.37 0.36 0.47 0.56 0.67 0.82 0.94 0.97 1.00 1.14 1.35 1.55 1.66 1.73 1.75 1.77 1.75 1.77 1.72 1.70 1.63 1.55 1.53 1.52 1.49 1.48 1.46 1.41 1.36 1.30 1.22 1.16 1.07 1.01 0.92 0.81
0.44 0.49 0.46 0.39 0.36 0.36 0.38 0.34 0.21 0.17 0.19 0.33 0.41 0.40 0.40 0.51 0.63 0.67 0.75 0.87 1.01 1.09 1.27 1.49 1.67 1.79 1.81 1.81 1.83 1.82 1.77 1.75 1.69 1.62 1.62 1.57 1.50 1.46 1.46 1.47 1.43 1.35 1.30 1.27 1.24 1.22 1.19 1.10 0.98
0.65 0.75 0.67 0.44 0.33 0.33 0.53 0.49 0.20 0.16 0.22 0.35 0.48 0.46 0.41 0.50 0.64 0.72 0.77 0.87 1.04 1.21 1.36 1.54 1.78 1.90 1.88 1.89 1.92 1.93 1.83 1.76 1.77 1.70 1.68 1.63 1.56 1.50 1.54 1.52 1.45 1.40 1.40 1.33 1.25 1.20 1.20 1.15 1.06
0.95 0.87 0.62 0.43 0.35 0.36 0.51 0.48 0.24 0.21 0.25 0.33 0.46 0.51 0.48 0.52 0.68 0.82 0.86 0.89 1.08 1.21 1.28 1.50 1.77 1.91 1.93 1.95 1.96 2.02 2.00 1.89 1.86 1.82 1.73 1.65 1.61 1.54 1.57 1.57 1.50 1.45 1.48 1.46 1.34 1.23 1.12 1.06 1.00
0.79 0.63 0.52 0.45 0.41 0.44 0.44 0.37 0.25 0.26 0.27 0.30 0.39 0.51 0.55 0.52 0.58 0.75 0.88 0.96 1.11 1.30 1.40 1.51 1.77 1.91 2.04 2.10 2.14 2.13 2.12 2.03 1.96 1.90 1.74 1.64 1.65 1.64 1.59 1.57 1.52 1.48 1.47 1.48 1.43 1.32 1.19 1.06 0.99
0.53 0.54 0.54 0.45 0.41 0.55 0.51 0.41 0.30 0.28 0.27 0.31 0.41 0.45 0.52 0.51 0.55 0.69 0.85 1.03 1.20 1.33 1.43 1.50 1.69 1.79 2.02 2.19 2.11 2.04 1.99 1.96 1.91 1.85 1.83 1.76 1.78 1.78 1.72 1.67 1.65 1.60 1.50 1.39 1.38 1.39 1.36 1.28 1.20
0.65 0.68 0.61 0.51 0.46 0.61 0.59 0.47 0.33 0.31 0.30 0.31 0.39 0.43 0.47 0.49 0.56 0.65 0.81 0.96 1.10 1.21 1.28 1.37 1.58 1.76 1.93 2.09 2.06 1.97 1.94 1.92 1.90 1.84 1.87 1.94 1.96 1.95 1.86 1.72 1.69 1.68 1.61 1.50 1.38 1.38 1.41 1.35 1.32
0.68 0.63 0.57 0.56 0.56 0.63 0.67 0.61 0.39 0.32 0.28 0.31 0.36 0.43 0.49 0.46 0.50 0.57 0.69 0.86 0.98 1.10 1.16 1.29 1.53 1.72 1.95 2.13 2.28 2.23 2.23 2.21 2.12 1.98 1.86 1.85 1.89 1.86 1.79 1.68 1.63 1.66 1.66 1.59 1.47 1.37 1.35 1.33 1.23
0.69 0.44 0.47 0.58 0.84 0.96 0.81 0.91 0.50 0.36 0.32 0.33 0.35 0.37 0.44 0.46 0.51 0.57 0.65 0.77 0.88 0.99 1.08 1.21 1.53 1.76 1.94 2.11 2.22 2.28 2.23 2.15 2.03 1.91 1.84 1.77 1.73 1.74 1.69 1.67 1.62 1.54 1.51 1.45 1.40 1.35 1.31 1.29 1.28
0.60 0.43 0.50 0.69 0.94 1.05 0.79 0.92 0.58 0.37 0.41 0.40 0.37 0.36 0.37 0.41 0.46 0.55 0.63 0.75 0.87 0.99 1.03 1.13 1.36 1.62 1.86 2.06 2.12 2.20 2.18 2.08 2.04 2.04 2.00 1.98 1.89 1.78 1.73 1.68 1.68 1.61 1.51 1.42 1.39 1.38 1.36 1.32 1.26
0.68 0.77 0.87 1.01 1.47 1.66 0.69 0.67 0.56 0.46 0.53 0.47 0.41 0.38 0.34 0.38 0.42 0.53 0.64 0.72 0.86 1.08 1.11 1.15 1.25 1.44 1.70 1.90 1.98 2.01 2.05 2.01 1.99 2.03 2.02 1.99 1.91 1.79 1.67 1.63 1.61 1.58 1.49 1.38 1.34 1.34 1.37 1.36 1.28
1.11 1.62 2.38 2.52 2.50 1.49 0.40 0.47 0.57 0.47 0.44 0.47 0.47 0.39 0.33 0.36 0.43 0.49 0.59 0.73 0.81 1.00 1.11 1.17 1.24 1.28 1.48 1.72 1.83 1.80 1.88 1.86 1.84 1.88 1.87 1.83 1.79 1.72 1.63 1.51 1.43 1.39 1.37 1.36 1.32 1.31 1.29 1.30 1.35
1.21 1.50 1.91 1.80 1.26 0.64 0.32 0.39 0.47 0.41 0.37 0.37 0.41 0.39 0.35 0.36 0.43 0.47 0.49 0.67 0.83 0.91 1.00 1.11 1.20 1.25 1.35 1.47 1.63 1.68 1.81 1.81 1.75 1.78 1.80 1.75 1.67 1.58 1.55 1.52 1.42 1.29 1.22 1.25 1.30 1.29 1.25 1.26 1.31
1.04 1.18 1.05 1.32 0.91 0.64 0.47 0.33 0.31 0.27 0.28 0.28 0.35 0.38 0.40 0.41 0.44 0.48 0.50 0.62 0.77 0.84 0.91 1.05 1.16 1.27 1.31 1.31 1.46 1.56 1.64 1.70 1.66 1.64 1.65 1.65 1.61 1.58 1.58 1.53 1.51 1.42 1.31 1.24 1.23 1.23 1.20 1.24 1.25
0.83 0.95 1.24 1.77 1.48 0.83 0.45 0.32 0.39 0.35 0.34 0.31 0.34 0.40 0.42 0.44 0.44 0.48 0.55 0.62 0.73 0.81 0.88 0.99 1.06 1.23 1.39 1.36 1.38 1.51 1.55 1.60 1.63 1.57 1.53 1.45 1.43 1.50 1.60 1.60 1.53 1.54 1.50 1.42 1.31 1.23 1.20 1.26 1.28
0.83 1.12 1.43 1.58 1.31 1.00 0.61 0.47 0.46 0.41 0.40 0.41 0.40 0.46 0.50 0.49 0.48 0.50 0.60 0.68 0.72 0.78 0.86 1.02 1.08 1.18 1.39 1.47 1.43 1.45 1.53 1.57 1.62 1.61 1.50 1.37 1.31 1.35 1.47 1.54 1.54 1.54 1.55 1.51 1.46 1.37 1.31 1.32 1.32
0.70 0.90 1.13 1.54 1.23 0.82 0.70 0.50 0.36 0.33 0.34 0.36 0.39 0.45 0.52 0.53 0.56 0.58 0.67 0.71 0.72 0.78 0.84 0.96 1.03 1.11 1.29 1.46 1.54 1.50 1.52 1.63 1.65 1.59 1.52 1.45 1.38 1.34 1.39 1.52 1.63 1.61 1.58 1.54 1.53 1.49 1.49 1.51 1.47